Weather History for McAllen, TX

Change the Weather History Date:

Wednesday, January 2, 2013

  Actual Average Record
Temperature  
Mean Temperature 51 °F 60 °F  
Max Temperature 58 °F 70 °F 88 °F (2006)
Min Temperature 43 °F 50 °F 30 °F (1899)
Degree Days  
Heating Degree Days 14 7  
Month to date heating degree days 15 14  
Since 1 July heating degree days 118 251  
Cooling Degree Days 0 2  
Month to date cooling degree days 0 4  
Year to date cooling degree days 0 4  
Moisture  
Dew Point 41 °F    
Average Humidity 79    
Maximum Humidity 92    
Minimum Humidity 66    
Precipitation  
Precipitation 0.27 in 0.03 in 1.18 in (1973)
Month to date precipitation 0.30 0.06  
Year to date precipitation 0.30 0.06  
Sea Level Pressure  
Sea Level Pressure 30.25 in    
Wind  
Wind Speed 10 mph (North)    
Max Wind Speed 18 mph    
Max Gust Speed 22 mph    
Visibility 10 miles    
Events Rain    
T = Trace of Precipitation, MM = Missing Value Source: NWS Daily Summary

Daily Weather History Graph

Daily Weather History Graph

Search for Another Location

Airport:

Trip Planner

Search our weather history database for the weather conditions in past years. The results will help you decide how hot, cold, wet, or windy it might be!

Date:

Astronomy

Jan. 02, 2013 Rise Set
Actual Time 7:20 AM CST 5:53 PM CST
Civil Twilight 6:55 AM CST 6:18 PM CST
Nautical Twilight 6:26 AM CST 6:47 PM CST
Astronomical Twilight 5:58 AM CST 7:15 PM CST
Moon 10:53 PM CST (1/2) 10:34 AM CST (1/2)
Length of Visible Light 11h 23m
Length of Day
10h 32m
Waning Gibbous, 75% of the Moon is Illuminated
Jan 2
Waning Gibbous
Jan 4
Last Quarter
Jan 11
New
Jan 18
First Quarter
Jan 26
Full

Hourly Weather History & Observations

Time (CST) Temp. Windchill Dew Point Humidity Pressure Visibility Wind Dir Wind Speed Gust Speed Precip Events Conditions
12:53 AM 57.0 °F - 46.0 °F 67% 30.18 in 10.0 mi North 8.1 mph - N/A   Mostly Cloudy
1:53 AM 55.9 °F - 45.0 °F 67% 30.16 in 10.0 mi North 6.9 mph - 0.00 in   Scattered Clouds
2:53 AM 55.0 °F - 46.0 °F 72% 30.17 in 10.0 mi North 13.8 mph - 0.00 in Rain Light Rain
3:53 AM 53.1 °F - 46.9 °F 80% 30.17 in 10.0 mi NNE 12.7 mph - 0.01 in Rain Light Rain
4:53 AM 50.0 °F - 43.0 °F 77% 30.19 in 10.0 mi North 12.7 mph - 0.01 in Rain Light Rain
5:53 AM 48.9 °F - 43.0 °F 80% 30.20 in 10.0 mi North 13.8 mph - 0.03 in Rain Light Rain
6:53 AM 48.9 °F - 43.0 °F 80% 30.22 in 10.0 mi North 6.9 mph - 0.00 in Rain Light Rain
7:53 AM 48.0 °F - 42.1 °F 80% 30.26 in 10.0 mi North 10.4 mph - 0.01 in Rain Light Rain
8:53 AM 48.2 °F - 42.8 °F 82% 30.30 in 10.0 mi NNW 8.1 mph - N/A Rain Light Rain
9:53 AM 46.9 °F - 42.1 °F 83% 30.30 in 10.0 mi North 11.5 mph - 0.02 in Rain Light Rain
10:53 AM 46.9 °F - 41.0 °F 80% 30.30 in 10.0 mi North 13.8 mph - 0.00 in Rain Light Rain
11:36 AM 46.4 °F 40.4 °F 42.8 °F 87% 30.29 in 10.0 mi North 13.8 mph - 0.01 in Rain Light Rain
11:53 AM 46.9 °F - 42.1 °F 83% 30.28 in 10.0 mi North 12.7 mph - 0.01 in   Overcast
12:18 PM 46.4 °F 40.1 °F 41.0 °F 81% 30.26 in 10.0 mi North 15.0 mph - N/A   Overcast
12:43 PM 46.4 °F 40.4 °F 41.0 °F 81% 30.25 in 10.0 mi North 13.8 mph - N/A   Overcast
12:53 PM 46.0 °F 39.9 °F 41.0 °F 83% 30.24 in 10.0 mi North 13.8 mph - N/A   Overcast
1:31 PM 46.4 °F 40.4 °F 39.2 °F 76% 30.22 in 10.0 mi North 13.8 mph - N/A   Overcast
1:53 PM 46.0 °F 40.6 °F 39.9 °F 79% 30.22 in 10.0 mi North 11.5 mph - N/A   Overcast
2:05 PM 46.4 °F 40.1 °F 39.2 °F 76% 30.22 in 10.0 mi North 15.0 mph - N/A   Overcast
2:14 PM 44.6 °F 38.8 °F 37.4 °F 76% 30.23 in 10.0 mi North 11.5 mph - 0.00 in Rain Light Rain
2:53 PM 45.0 °F 39.3 °F 41.0 °F 86% 30.22 in 9.0 mi NNW 11.5 mph - 0.00 in Rain Light Rain
3:53 PM 45.0 °F 39.7 °F 41.0 °F 86% 30.24 in 6.0 mi North 10.4 mph - 0.04 in Rain Rain
4:14 PM 44.6 °F 40.2 °F 41.0 °F 87% 30.24 in 7.0 mi North 8.1 mph - 0.02 in Rain Light Rain
4:53 PM 44.1 °F 40.1 °F 39.9 °F 85% 30.25 in 9.0 mi North 6.9 mph - 0.04 in Rain Light Rain
5:53 PM 45.0 °F 40.1 °F 42.1 °F 90% 30.25 in 8.0 mi NNW 9.2 mph - 0.04 in Rain Light Rain
6:28 PM 42.8 °F 35.8 °F 39.2 °F 87% 30.25 in 10.0 mi North 13.8 mph - 0.01 in Rain Light Rain
6:53 PM 43.0 °F 38.8 °F 39.9 °F 89% 30.27 in 10.0 mi North 6.9 mph - 0.02 in Rain Light Rain
7:09 PM 42.8 °F 38.6 °F 39.2 °F 87% 30.26 in 8.0 mi North 6.9 mph - 0.01 in Rain Light Rain
7:16 PM 42.8 °F 38.0 °F 39.2 °F 87% 30.26 in 8.0 mi NNE 8.1 mph - 0.02 in Rain Light Rain
7:53 PM 44.1 °F 39.5 °F 41.0 °F 89% 30.28 in 9.0 mi North 8.1 mph - 0.03 in Rain Light Rain
8:53 PM 43.0 °F 36.8 °F 39.0 °F 86% 30.31 in 10.0 mi NNW 11.5 mph - 0.01 in Rain Light Rain
9:45 PM 42.8 °F 38.0 °F 39.2 °F 87% 30.31 in 10.0 mi NNW 8.1 mph - 0.00 in   Overcast
9:53 PM 43.0 °F 37.7 °F 39.9 °F 89% 30.31 in 10.0 mi NNW 9.2 mph - 0.00 in   Overcast
10:53 PM 44.1 °F 39.5 °F 39.9 °F 85% 30.31 in 10.0 mi NNW 8.1 mph - N/A   Overcast
11:22 PM 42.8 °F 37.5 °F 39.2 °F 87% 30.30 in 10.0 mi North 9.2 mph - N/A   Overcast
11:53 PM 43.0 °F 38.8 °F 39.0 °F 86% 30.29 in 10.0 mi NNW 6.9 mph - N/A   Overcast